Temperature
18 18 18 18 18 18 18 18 18 18 18 18 18 18 18 18 18 18 18 18 18 18 18 18 18 17 17 17 17 17 17 17 17 16 16 16 16 16 16 16 16 16 16
18 18 18 18 18 18 18 18 18 18 18 18 18 18 18 18 18 18 18 18 18 18 18 18 18 18 17 17 17 17 17 17 17 17 17 16 16 16 16 16 16 16 16
18 18 18 18 18 18 18 18 18 18 18 18 18 18 18 18 18 18 18 18 18 18 18 18 18 18 18 17 17 17 17 17 17 17 17 17 16 16 16 16 16 16 16
18 18 18 18 18 18 18 18 18 18 18 18 18 18 18 18 18 18 18 18 18 18 18 18 18 18 18 18 18 17 17 17 17 17 17 17 17 17 16 16 16 16 16
19 18 18 18 18 18 18 18 18 18 18 18 18 18 18 18 18 18 18 18 18 18 18 18 18 18 18 18 17 17 17 17 17 17 17 17 16 16 16 16 16 16 16
19 19 19 18 18 18 18 18 18 18 18 18 18 19 19 19 19 18 18 18 18 18 18 18 18 18 18 18 17 17 17 17 17 17 17 17 17 17 16 16 16 16 16
19 19 18 18 18 18 18 18 18 18 18 18 18 18 19 19 19 19 19 18 18 18 18 18 18 18 18 18 17 17 17 17 17 17 17 17 17 17 17 16 16 16 16
19 19 19 19 18 18 18 18 18 18 18 18 18 18 18 19 19 19 19 19 19 18 18 18 18 18 17 17 17 17 17 17 17 17 17 17 17 17 17 16 16 16 16
19 19 18 18 18 18 18 18 18 18 18 18 18 18 18 18 19 19 19 19 19 19 18 18 18 18 18 17 17 17 17 17 17 17 17 17 17 17 17 16 16 16 16
19 19 19 18 18 18 18 18 18 18 18 18 18 18 18 18 18 19 19 19 19 19 18 18 18 18 18 18 17 17 17 17 17 17 17 17 17 17 17 16 16 16 16
19 19 18 18 18 18 18 18 18 18 18 18 18 18 18 18 18 18 18 19 19 19 18 18 18 18 18 18 18 17 17 17 17 17 17 17 17 17 17 16 16 16 16
19 19 18 18 18 18 18 18 18 18 18 18 18 18 18 18 18 18 18 18 18 19 18 18 18 18 18 18 17 17 17 17 17 17 17 17 17 17 16 16 16 16 16
18 18 18 18 18 18 18 18 18 18 18 18 18 18 18 18 18 18 18 18 18 18 18 18 18 18 18 17 17 17 17 17 17 17 17 17 17 16 16 16 16 16 16
18 18 18 18 18 18 18 18 18 18 18 18 18 18 18 18 18 18 18 18 18 18 18 18 18 18 17 17 17 17 17 17 17 17 17 16 16 16 16 16 16 16 16
18 18 18 18 18 18 18 18 18 17 17 17 17 17 17 17 17 17 18 18 17 17 17 17 17 17 17 17 17 17 17 17 17 16 16 16 16 16 16 16 16 15 15
18 18 18 18 18 17 17 17 17 17 17 17 17 17 17 17 17 17 17 17 17 17 17 17 17 17 17 16 16 16 16 16 16 16 16 16 16 16 15 15 15 15 15
18 17 17 17 17 17 17 17 17 17 17 17 17 17 17 17 17 17 17 17 17 17 16 16 16 16 16 16 16 16 16 16 16 15 15 15 15 15 15 15 14 14 14
17 17 17 17 17 17 17 17 17 16 16 16 16 16 16 16 16 16 16 16 16 16 16 16 15 15 15 15 15 15 15 15 15 15 15 14 14 14 14 14 14 14 14
17 17 17 17 17 16 16 16 16 16 16 16 16 16 16 16 16 16 16 16 16 16 16 15 15 15 15 15 15 15 14 14 14 14 14 14 14 13 13 13 13 13 13
16 16 16 16 16 16 16 16 16 16 16 16 16 16 16 16 16 16 15 15 15 15 15 15 15 14 14 14 14 14 14 14 13 13 13 13 13 13 13 12 12 12 12
16 16 16 16 16 16 16 16 16 16 15 15 15 15 15 15 15 15 15 15 15 15 15 14 14 14 14 14 13 13 13 13 13 12 12 12 12 12 12 12 12 12 11
16 16 16 16 16 15 15 15 15 15 15 15 15 14 14 14 14 14 14 14 14 14 14 14 14 13 13 13 13 13 12 12 12 12 12 11 11 11 11 11 11 11 11
15 15 15 15 15 15 15 15 15 15 15 15 15 14 14 14 14 14 14 14 14 14 13 13 13 13 12 12 12 12 12 12 12 11 11 11 11 11 11 11 10 10 10
15 15 15 15 15 15 15 15 15 15 14 14 14 14 14 13 13 13 13 13 13 13 13 13 12 12 12 12 12 12 12 11 11 11 11 10 10 10 10 10 10 10 10
14 14 14 15 15 14 14 14 14 14 14 14 13 13 13 13 13 13 13 12 12 12 12 12 12 12 11 11 11 11 11 11 11 10 10 10 10 10 10 10 10 9 9
14 14 14 14 14 14 14 14 14 13 13 13 13 13 13 12 12 12 12 12 11 11 11 11 11 11 11 11 10 11 10 10 10 10 10 10 10 10 9 9 9 9 9
Wind_Speed
3 4 3 4 6 7 6 4 3 3 2 1 1 1 2 3 7 11 12 14 14 13 12 11 10 10 10 9 9 9 9 9 8 8 8 8 7 7 7 7 7 7 6
5 4 3 2 3 4 4 4 3 3 2 1 1 0 1 2 5 10 12 13 14 14 13 12 11 11 11 10 10 10 10 10 10 9 9 9 9 8 8 8 8 8 7
6 4 3 3 3 3 3 2 2 2 3 3 3 2 2 3 4 6 12 13 13 14 15 14 13 12 12 12 12 12 11 11 11 11 10 10 10 10 9 9 9 9 9
7 4 3 3 4 4 4 2 2 2 2 2 2 3 2 3 5 6 8 12 14 13 16 17 16 15 14 13 13 13 13 13 13 12 12 12 11 11 11 10 10 10 10
6 4 3 3 4 3 2 3 3 2 2 2 3 3 3 4 4 7 7 9 12 14 15 18 19 18 17 16 15 15 15 15 15 14 14 14 13 13 13 13 12 12 12
7 5 4 3 4 2 2 2 1 2 2 2 4 2 3 4 5 5 6 8 10 12 14 16 17 17 19 18 18 17 17 17 16 16 16 16 15 15 15 15 14 14 14
7 5 3 3 4 3 3 3 3 3 3 3 2 2 4 5 4 4 4 4 6 10 12 15 16 15 16 21 20 19 18 18 18 17 17 17 17 17 17 16 16 16 16
7 7 5 4 4 3 4 4 3 3 4 4 3 1 2 3 3 5 4 5 5 6 7 12 13 14 13 14 17 20 20 19 18 18 18 18 18 18 18 18 18 17 17
7 5 5 5 4 4 4 5 4 5 4 4 3 3 2 2 2 3 4 4 3 3 3 4 8 10 11 11 13 19 20 19 19 18 19 19 19 18 18 19 18 18 18
6 6 5 5 4 4 4 5 5 4 4 4 3 3 4 2 2 2 3 2 3 4 4 4 5 9 11 11 11 13 19 20 19 18 17 17 17 17 17 17 17 18 18
5 5 5 5 4 4 4 4 3 4 4 5 4 3 4 4 4 3 3 2 2 3 3 4 3 4 8 10 10 12 17 19 19 18 17 16 16 16 16 16 16 16 17
4 5 5 4 4 4 5 4 4 5 4 4 4 3 3 3 3 4 4 4 3 3 3 3 3 3 5 7 9 11 15 18 18 18 17 16 16 16 16 16 16 15 15
3 3 3 2 3 4 4 4 4 4 4 4 4 4 4 4 2 3 4 4 3 2 2 2 2 3 5 6 8 10 12 16 17 16 16 15 15 14 14 13 13 13 12
2 2 2 2 2 3 4 4 3 4 4 4 5 5 4 3 3 3 3 3 3 3 2 2 1 0 1 3 5 6 7 12 15 15 14 13 12 11 10 10 10 10 10
2 1 2 2 2 2 3 2 2 3 2 3 4 4 4 4 4 3 2 2 3 3 3 2 1 0 0 2 4 4 5 8 10 11 12 12 11 10 9 8 8 8 8
1 1 0 1 1 1 2 2 2 2 2 3 2 2 2 3 3 2 2 2 2 3 3 2 1 0 1 1 3 4 4 5 7 8 9 8 8 7 6 6 6 6 6
0 0 0 0 0 0 1 1 1 1 2 1 2 2 2 2 2 2 2 2 2 1 3 3 2 1 1 2 2 2 3 4 5 7 7 7 6 6 5 4 3 3 3
1 0 0 0 1 0 0 0 0 0 0 0 1 1 2 2 2 2 2 3 2 1 2 3 2 2 1 1 1 1 2 3 4 5 6 7 7 6 5 5 4 3 2
1 1 2 1 1 1 1 0 0 1 1 2 2 2 2 2 2 2 2 2 2 1 0 1 1 1 1 1 2 1 2 3 4 4 5 6 7 6 6 5 4 3 3
3 2 2 1 1 2 2 2 2 2 2 3 3 4 4 4 4 3 3 3 2 2 1 1 0 1 1 2 1 1 2 2 3 3 4 5 6 7 6 5 4 4 3
3 3 2 2 2 2 2 2 2 3 3 4 4 4 6 7 8 6 4 4 4 3 2 2 1 2 2 2 2 1 1 2 2 2 2 3 4 4 4 4 4 4 3
4 5 4 4 5 4 5 5 4 3 4 4 4 3 4 6 7 8 9 8 6 4 3 3 3 3 3 2 1 1 0 1 1 1 1 1 2 2 4 4 4 4 3
5 6 5 6 6 6 8 7 6 4 4 5 5 4 4 6 6 6 7 8 9 8 6 4 4 3 3 3 2 2 2 1 1 1 1 1 1 2 3 4 5 4 3
6 6 6 6 6 7 8 7 5 5 6 6 6 6 6 7 7 6 6 7 7 7 6 5 5 5 5 4 3 2 1 2 2 2 2 1 1 1 2 4 4 4 3
6 6 6 7 7 8 10 8 6 5 7 8 8 9 8 8 10 8 6 6 6 5 8 9 8 7 8 8 7 4 3 2 2 2 3 2 1 1 1 1 3 3 2
6 6 7 7 8 8 11 11 7 4 6 7 7 9 12 10 10 10 6 6 5 4 4 5 5 6 6 8 9 6 4 3 2 2 3 3 2 2 1 0 2 2 1
Wind_Direction
153 144 153 177 186 176 181 197 184 150 129 170 213 141 98 79 116 129 144 160 162 165 168 172 175 177 177 178 181 182 180 179 179 179 179 179 180 180 181 182 182 180 177
142 138 152 197 206 173 167 188 163 152 175 203 223 223 132 133 130 137 152 167 173 175 178 181 185 188 189 191 191 191 191 192 190 191 192 192 192 194 196 193 192 191 191
148 167 167 200 206 171 158 179 199 185 194 194 201 213 191 172 165 161 161 170 179 187 190 191 193 196 197 199 201 200 199 199 199 201 203 203 203 204 205 205 205 203 202
159 179 187 202 192 195 178 201 230 209 219 207 206 212 196 178 182 189 188 181 181 186 195 199 200 202 204 206 208 206 206 207 207 208 210 211 212 212 212 214 215 214 213
174 196 211 184 195 206 206 221 190 212 230 229 238 217 214 203 199 205 199 198 190 183 186 197 203 206 208 211 213 213 212 212 213 214 215 217 219 219 219 220 221 223 223
187 206 216 190 211 218 229 228 189 221 230 237 259 260 249 226 208 210 205 203 200 197 192 187 196 209 213 213 214 216 216 217 217 218 220 222 224 224 224 225 226 228 229
193 202 232 183 213 222 221 215 215 222 228 228 240 269 273 255 219 211 219 215 205 207 199 181 188 196 205 215 217 217 218 219 219 220 222 224 227 227 227 227 228 229 230
206 204 209 217 209 218 226 236 238 234 232 215 209 217 274 284 254 229 216 216 222 208 202 198 197 191 195 197 213 218 220 220 221 222 224 225 228 229 228 229 229 231 232
209 228 203 217 218 216 213 219 226 229 238 235 213 198 216 241 270 259 231 227 218 206 210 194 196 195 199 197 197 211 216 219 221 224 226 226 227 229 230 231 231 233 234
209 213 212 215 228 238 222 219 214 219 228 246 241 223 222 215 228 287 273 226 213 210 208 219 212 202 198 202 203 200 209 216 219 222 225 226 227 229 231 232 234 236 235
211 219 212 212 220 235 238 232 223 220 227 234 242 235 228 228 223 227 264 270 249 223 204 210 217 196 200 200 208 206 204 209 214 220 224 226 227 230 232 233 237 240 240
217 217 221 213 222 229 237 234 228 227 236 249 255 257 249 230 223 219 237 249 246 241 230 222 208 189 208 204 215 219 204 202 209 215 221 225 228 230 232 234 238 241 243
223 213 226 219 229 235 239 239 227 236 237 242 245 256 263 260 246 232 236 247 249 247 243 227 209 192 211 213 217 214 203 198 204 210 216 221 225 228 230 233 236 238 241
230 201 199 214 230 237 237 232 230 233 230 233 243 243 255 267 264 253 247 248 264 267 269 264 228 220 259 210 207 194 192 199 204 206 209 212 214 217 221 226 229 234 238
239 226 191 206 230 254 244 241 242 248 237 230 242 244 245 256 260 266 265 253 237 252 266 273 266 306 115 174 172 179 171 186 195 198 201 204 206 208 211 216 219 225 231
335 350 312 201 227 249 251 243 251 246 243 249 247 252 256 271 270 269 267 262 242 236 252 277 270 350 40 47 107 128 131 136 162 179 185 186 188 191 195 202 212 220 224
93 92 301 23 286 270 252 240 241 239 242 259 269 260 257 267 286 296 291 283 276 233 248 275 306 339 24 24 72 101 99 114 126 145 158 161 159 158 161 170 180 190 210
99 111 26 22 284 270 87 112 255 284 310 291 307 329 319 298 291 303 309 302 295 266 235 260 293 318 325 353 19 48 91 101 109 127 143 148 145 144 141 133 121 115 133
78 64 62 51 19 9 15 27 57 48 54 48 35 33 13 2 356 342 337 326 324 326 196 213 273 317 344 4 15 25 69 77 81 107 120 129 137 139 138 134 129 122 115
77 66 63 62 50 31 15 24 61 66 63 60 56 50 40 38 29 17 12 4 0 7 53 81 31 359 6 1 24 50 66 61 67 72 87 101 111 117 119 113 114 111 105
78 67 53 41 42 47 23 32 71 76 65 60 60 61 61 62 58 53 48 30 27 30 40 52 36 21 15 14 5 7 79 81 63 68 86 103 113 116 113 108 104 98 103
60 63 58 52 52 41 23 40 70 69 65 62 56 58 70 63 67 68 67 61 57 55 47 55 42 25 15 10 6 22 76 103 47 27 56 61 111 86 106 113 117 116 107
64 63 62 65 60 37 36 46 68 78 70 60 55 51 49 46 56 70 70 66 61 57 60 64 54 28 21 11 10 34 35 46 67 17 10 351 67 75 109 113 130 124 118
68 64 61 60 61 43 39 46 64 84 79 67 58 57 59 51 42 57 72 69 63 54 53 63 62 50 46 29 23 33 62 78 96 45 9 342 43 85 98 130 151 139 115
79 73 65 60 58 42 34 43 63 94 86 72 64 56 54 53 33 46 67 71 70 63 63 67 68 68 58 45 39 37 36 55 51 51 25 5 5 5 109 136 156 146 116
86 80 70 62 58 50 42 38 38 81 91 90 82 68 57 52 44 44 55 59 56 48 58 61 57 55 54 50 45 36 26 31 35 42 17 3 2 359 355 40 138 152 165
Height
1570 1571 1571 1572 1573 1574 1575 1576 1577 1577 1578 1579 1580 1580 1581 1581 1581 1581 1581 1581 1581 1582 1582 1583 1583 1584 1585 1586 1587 1588 1589 1590 1591 1591 1592 1593 1594 1595 1596 1596 1597 1598 1598
1569 1570 1571 1572 1573 1574 1575 1576 1576 1577 1578 1578 1579 1580 1580 1581 1581 1581 1581 1581 1581 1581 1582 1582 1583 1584 1584 1585 1586 1587 1588 1589 1590 1591 1591 1592 1593 1594 1595 1595 1596 1597 1598
1569 1570 1571 1572 1573 1574 1575 1575 1576 1576 1577 1578 1578 1579 1579 1580 1580 1580 1580 1580 1581 1581 1581 1582 1582 1583 1584 1584 1585 1586 1587 1588 1588 1589 1590 1591 1592 1593 1593 1594 1595 1596 1596
1568 1569 1571 1571 1572 1573 1574 1575 1575 1576 1577 1577 1578 1578 1578 1579 1579 1579 1580 1579 1580 1580 1581 1581 1582 1582 1583 1583 1584 1584 1585 1586 1587 1588 1589 1589 1590 1591 1592 1593 1593 1594 1595
1567 1568 1570 1571 1571 1572 1573 1574 1574 1575 1575 1576 1576 1577 1577 1577 1578 1578 1579 1579 1579 1579 1579 1580 1580 1581 1581 1582 1582 1583 1583 1584 1585 1586 1586 1587 1588 1589 1590 1590 1591 1592 1593
1566 1567 1568 1569 1570 1571 1572 1572 1573 1573 1574 1574 1575 1575 1575 1576 1576 1576 1577 1577 1577 1578 1578 1578 1578 1579 1579 1580 1580 1581 1581 1582 1582 1583 1584 1585 1586 1586 1587 1588 1589 1589 1590
1564 1565 1566 1567 1568 1569 1570 1570 1571 1571 1572 1573 1573 1573 1573 1573 1573 1574 1574 1575 1575 1576 1576 1576 1575 1576 1576 1577 1578 1578 1579 1579 1580 1580 1581 1582 1583 1584 1584 1585 1586 1586 1587
1562 1563 1564 1565 1566 1566 1567 1568 1569 1569 1570 1571 1571 1572 1571 1572 1571 1571 1571 1572 1572 1573 1573 1574 1574 1574 1574 1574 1574 1575 1576 1576 1577 1577 1578 1579 1580 1580 1581 1582 1583 1583 1584
1560 1561 1562 1562 1563 1564 1564 1565 1566 1566 1567 1568 1569 1570 1570 1569 1569 1569 1569 1569 1570 1570 1570 1571 1571 1570 1571 1571 1571 1572 1573 1573 1574 1574 1575 1575 1576 1577 1578 1578 1579 1579 1580
1558 1558 1559 1560 1561 1561 1562 1562 1563 1563 1564 1565 1566 1566 1567 1567 1567 1566 1567 1567 1566 1566 1567 1568 1568 1568 1568 1568 1568 1568 1569 1570 1570 1571 1571 1572 1572 1573 1574 1574 1575 1575 1576
1555 1556 1556 1557 1557 1558 1559 1559 1560 1560 1561 1562 1563 1563 1564 1564 1564 1565 1564 1564 1564 1564 1564 1564 1564 1565 1565 1565 1565 1565 1565 1566 1566 1567 1567 1568 1568 1569 1570 1570 1571 1571 1571
1552 1553 1553 1554 1554 1554 1555 1556 1557 1557 1557 1558 1559 1560 1561 1561 1561 1561 1561 1560 1560 1560 1560 1561 1561 1561 1561 1561 1561 1561 1561 1562 1563 1563 1563 1564 1564 1565 1565 1566 1566 1566 1567
1549 1550 1550 1550 1551 1551 1552 1553 1553 1553 1554 1554 1555 1556 1557 1557 1558 1558 1558 1557 1557 1557 1557 1557 1557 1557 1557 1557 1557 1557 1557 1558 1558 1559 1559 1559 1559 1560 1561 1561 1561 1562 1562
1546 1547 1547 1547 1547 1547 1548 1549 1550 1550 1550 1551 1551 1552 1553 1553 1554 1554 1555 1555 1554 1554 1554 1553 1553 1553 1553 1553 1553 1554 1554 1554 1554 1554 1554 1555 1555 1555 1556 1556 1557 1557 1557
1544 1544 1544 1544 1545 1544 1545 1546 1546 1546 1547 1547 1547 1548 1549 1549 1550 1551 1551 1551 1552 1551 1550 1550 1550 1550 1549 1549 1549 1549 1549 1549 1550 1550 1550 1550 1550 1551 1551 1551 1552 1552 1552
1541 1542 1542 1542 1542 1542 1543 1543 1543 1544 1544 1544 1544 1544 1545 1546 1546 1547 1547 1547 1548 1548 1547 1547 1547 1547 1547 1547 1546 1546 1545 1545 1545 1546 1546 1546 1546 1546 1546 1546 1546 1547 1547
1538 1539 1539 1540 1540 1540 1540 1541 1541 1541 1541 1541 1541 1541 1542 1542 1543 1543 1544 1544 1544 1544 1544 1543 1544 1543 1543 1543 1542 1542 1542 1542 1542 1542 1542 1542 1542 1542 1542 1542 1542 1542 1542
1536 1537 1537 1537 1538 1538 1538 1538 1539 1539 1539 1539 1539 1539 1539 1540 1540 1540 1541 1541 1541 1541 1541 1540 1540 1540 1540 1539 1539 1538 1538 1538 1538 1538 1539 1539 1538 1538 1538 1538 1538 1537 1537
1535 1535 1535 1535 1536 1537 1537 1537 1537 1537 1537 1537 1537 1537 1537 1538 1538 1538 1539 1539 1539 1539 1539 1538 1538 1538 1537 1537 1536 1536 1535 1535 1535 1535 1535 1535 1534 1534 1534 1534 1534 1533 1533
1533 1533 1534 1534 1535 1535 1535 1536 1536 1536 1536 1536 1536 1536 1536 1536 1536 1536 1537 1537 1537 1536 1536 1536 1536 1535 1535 1535 1534 1533 1533 1533 1532 1532 1532 1532 1532 1532 1532 1531 1531 1530 1530
1533 1533 1533 1533 1534 1534 1534 1534 1535 1535 1535 1535 1535 1535 1535 1535 1535 1535 1535 1535 1535 1534 1534 1534 1534 1533 1533 1533 1532 1532 1532 1531 1531 1531 1531 1531 1530 1530 1530 1529 1529 1528 1528
1532 1532 1532 1532 1532 1533 1533 1534 1534 1534 1534 1534 1534 1535 1535 1535 1534 1534 1534 1534 1534 1533 1533 1533 1532 1532 1532 1532 1531 1531 1530 1530 1530 1531 1530 1530 1530 1529 1528 1528 1527 1526 1526
1532 1532 1532 1532 1532 1533 1533 1533 1533 1534 1534 1534 1534 1534 1534 1534 1534 1534 1534 1533 1533 1533 1533 1533 1532 1531 1531 1530 1530 1529 1529 1529 1529 1529 1529 1529 1529 1528 1528 1527 1526 1526 1525
1533 1533 1533 1533 1532 1533 1533 1533 1533 1534 1534 1534 1534 1534 1534 1534 1534 1534 1534 1533 1533 1532 1532 1532 1532 1531 1531 1531 1530 1529 1529 1529 1529 1529 1529 1529 1528 1528 1527 1527 1526 1525 1524
1534 1534 1534 1533 1533 1533 1533 1533 1534 1534 1534 1534 1535 1535 1535 1534 1534 1534 1534 1534 1533 1533 1533 1533 1533 1532 1532 1531 1531 1530 1529 1529 1529 1529 1529 1529 1528 1528 1527 1526 1526 1525 1523
1535 1535 1535 1535 1535 1534 1534 1534 1535 1535 1535 1535 1535 1535 1536 1536 1536 1535 1535 1535 1535 1535 1534 1534 1534 1533 1533 1532 1531 1531 1530 1530 1530 1529 1529 1528 1528 1527 1527 1526 1525 1524 1522